TimeMDT,TemperatureF,Dew PointF,Humidity,Sea Level PressureIn,VisibilityMPH,Wind Direction,Wind SpeedMPH,Gust SpeedMPH,PrecipitationIn,Events,Conditions,WindDirDegrees,DateUTC
12:53 AM,21.9,17.1,82,30.27,10.0,WNW,19.6,-,N/A,,Overcast,290,2013-10-05 06:53:00
1:53 AM,24.1,16.0,71,30.29,10.0,NW,16.1,24.2,N/A,,Mostly Cloudy,310,2013-10-05 07:53:00
2:53 AM,21.9,17.1,82,30.29,10.0,NW,23.0,-,N/A,,Clear,320,2013-10-05 08:53:00
3:53 AM,24.1,18.0,77,30.29,10.0,NW,17.3,-,N/A,,Mostly Cloudy,310,2013-10-05 09:53:00
4:53 AM,26.1,19.9,78,30.28,10.0,NW,16.1,-,N/A,,Overcast,310,2013-10-05 10:53:00
5:53 AM,26.1,17.1,69,30.26,10.0,WNW,16.1,-,N/A,,Overcast,300,2013-10-05 11:53:00
6:53 AM,25.0,15.1,66,30.27,10.0,North,15.0,23.0,N/A,,Mostly Cloudy,360,2013-10-05 12:53:00
7:53 AM,27.0,15.1,61,30.30,10.0,NW,11.5,16.1,N/A,,Clear,320,2013-10-05 13:53:00
8:53 AM,28.0,15.1,58,30.29,10.0,West,6.9,-,N/A,,Clear,270,2013-10-05 14:53:00
9:53 AM,30.0,18.0,61,30.31,10.0,ENE,6.9,-,N/A,,Clear,60,2013-10-05 15:53:00
10:53 AM,34.0,18.0,52,30.30,10.0,WNW,15.0,-,N/A,,Clear,290,2013-10-05 16:53:00
11:53 AM,36.0,21.9,57,30.26,10.0,WNW,15.0,19.6,N/A,,Clear,290,2013-10-05 17:53:00
12:53 PM,39.9,19.0,43,30.24,10.0,NW,19.6,-,N/A,,Clear,310,2013-10-05 18:53:00
1:53 PM,42.1,18.0,38,30.21,10.0,WNW,20.7,26.5,N/A,,Clear,300,2013-10-05 19:53:00
2:53 PM,44.1,18.0,35,30.22,10.0,WNW,18.4,-,N/A,,Clear,300,2013-10-05 20:53:00
3:53 PM,43.0,23.0,45,30.21,10.0,West,15.0,-,N/A,,Clear,270,2013-10-05 21:53:00
4:53 PM,41.0,21.9,47,30.22,10.0,West,17.3,-,N/A,,Clear,270,2013-10-05 22:53:00
5:53 PM,39.0,19.9,46,30.23,10.0,West,17.3,-,N/A,,Clear,280,2013-10-05 23:53:00
6:53 PM,33.1,21.0,61,30.29,10.0,West,8.1,-,N/A,,Clear,280,2013-10-06 00:53:00
7:53 PM,33.1,18.0,54,30.32,10.0,Variable,5.8,-,N/A,,Clear,0,2013-10-06 01:53:00
8:53 PM,30.9,18.0,59,30.32,10.0,WSW,5.8,-,N/A,,Clear,240,2013-10-06 02:53:00
9:53 PM,28.0,19.0,69,30.35,10.0,SE,5.8,-,N/A,,Clear,140,2013-10-06 03:53:00
10:53 PM,28.9,19.0,67,30.32,10.0,SSE,6.9,-,N/A,,Clear,160,2013-10-06 04:53:00
11:53 PM,30.0,21.0,69,30.29,10.0,SSW,12.7,-,N/A,,Clear,200,2013-10-06 05:53:00